Terminal Aerodrome Forecast
Issued by NWS Blacksburg, VA

Home | Current Version | Previous Version | Text Only | Print | Product List | Glossary On
Versions: 1 2 3 4 5 6 7 8 9 10 11 12 13 14 15 16 17 18 19 20 21 22 23 24 25 26 27 28 29 30 31 32 33 34 35
543
FTUS41 KRNK 251351 AAA
TAFLYH
TAF AMD
KLYH 251351Z 2514/2612 20010G20KT P6SM SCT022 BKN045
     FM251500 20012KT P6SM OVC035
      TEMPO 2516/2518 5SM -SHRA
     FM251800 25012KT P6SM VCTS BKN035CB
     FM252000 27015G25KT P6SM BKN060
     FM260500 28008KT P6SM FEW250=

USA.gov is the U.S. government's official web portal to all federal, state and local government web resources and services.